Location: The Saddle
(36.8333°N, 80.3417°W)
Time: 10:19:43
(UTC-04:00)

Oscar 19 - Visible Passes

Search period start: 21 March 2023 00:00
Search period end: 31 March 2023 00:00
Orbit: 772 x 790 km, 98.8° (Epoch: 20 March)

Date Brightness Start Highest point End Pass type
(mag) Time Alt. Az. Time Alt. Az. Time Alt. Az.
21 Mar 11.7 04:56:03 10° NNE 05:00:55 42° E 05:03:13 27° SSE visible
21 Mar 11.9 06:36:05 10° NNW 06:39:52 21° WNW 06:43:37 10° WSW visible
22 Mar 12.8 04:24:49 10° NE 04:28:35 20° E 04:30:50 16° SE visible
22 Mar 11.0 06:03:09 10° N 06:07:58 42° WNW 06:11:23 18° SW visible
23 Mar 10.5 05:30:46 10° NNE 05:35:56 86° WNW 05:39:01 25° SSW visible
24 Mar 11.6 04:58:50 10° NNE 05:03:45 45° E 05:06:39 23° SSE visible
24 Mar 12.0 06:38:59 10° NNW 06:42:39 20° WNW 06:46:18 10° WSW visible
25 Mar 12.8 04:27:31 10° NE 04:31:25 22° E 04:34:16 14° SE visible
25 Mar 11.1 06:06:01 10° N 06:10:46 39° WNW 06:14:49 14° SW visible
26 Mar 10.5 05:33:35 10° NNE 05:38:44 82° WNW 05:42:26 19° SSW visible
27 Mar 11.5 05:01:36 10° NNE 05:06:33 47° E 05:10:04 19° SSE visible
27 Mar 12.0 06:41:53 10° NNW 06:45:26 19° WNW 06:48:58 10° WSW visible
28 Mar 12.7 04:30:13 10° NE 04:34:15 23° E 04:37:41 12° SE visible
28 Mar 11.2 06:08:51 10° N 06:13:33 37° WNW 06:18:13 10° SW visible
29 Mar 13.5 04:01:02 10° E 04:01:46 10° E 04:02:31 10° E visible
29 Mar 10.5 05:36:23 10° N 05:41:32 78° WNW 05:45:50 15° SSW visible
30 Mar 11.4 05:04:21 10° NNE 05:09:22 50° E 05:13:27 15° S visible
